User: anonymous   Login
Location: Oronoko Observatory
(41.9167°N, 86.3833°W)
Time: 02:34:31
(UTC-04:00)
Language:

PAYLOAD A - Orbit

View from above orbital plane
View from above orbital plane
View from above satellite
View from above satellite

Ground track
Ground track

The orbit data is extracted from the following two-line orbital elements,

1 27840U 03031A   15090.85085796  .00000205  00000-0  76176-4 0  9999
2 27840 098.2131 112.6118 0099131 036.4641 090.3281 14.38789066617070
Epoch (UTC): 31 March 2015 20:25:14
Eccentricity: 0.0099131
inclination: 98.2131°
perigee height: 692 km
apogee height: 833 km
right ascension of ascending node: 112.6118°
argument of perigee: 36.4641°
revolutions per day: 14.38789066
mean anomaly at epoch: 90.3281°
orbit number at epoch: 61707

The dashed part of the orbit path shows where the satellite is in the earth's shadow,  

DLR